Wind From: 20-09-2018 10:00 Until: 20:00 warning for: Wind Level: Yellow info button
suomi:
Tuulivaroitus maa-alueille: Lounaistuuli on voimakasta iltapäivällä ja illalla, tuulen nopeus puuskissa 15 m/s.

svenska:
Vindvarning för landområden: På eftermiddagen och kvällen är den sydvästliga vinden kraftigt, i vindbyarna 15 m/s.

english:
Wind warning for land areas: In the afternoon and in the evening, strong winds from southwest may bring strong gusts of 15 m/s. 


Thunder radar more information blitzortung!


Löydät sääaseman tiedot myös:

European Weather Network

Finland Weather Exchange

Weather Underground

AWEKAS



Weather Underground säähistoriasivu

Päivittäin yhteenveto Lokakuu 3, 2017 Yksiköt:  Englantilaiset    Metriset   Molemmat
« Edellinen Päivä
Seuraava Päivä »
Päivittäin Viikoittain Kuukausittain Vuosittain Mukautettu
  Korkea: Matala: Keskiarvo:
Lämpötila: TemperatureC °F 6.6 °F 7.5 °F
Kastepiste: DewpointC °F 5.0 °F 6.7 °F
Kosteus: Humidity % 83 % 94 %
Tuulen nopeus: WindSpeedKMH mph 0.0 mph 0 mph
Tuulenpuuska: WindSpeedGustKMH mph - -
Tuuli:- - North
Ilmanpaine: PressurehPa in 995.1 in -
Sade: 0.3 in    
Historical Graphs
 
 
Taulukkotiedot Lokakuu 3, 2017
Aika Lämpötila Kastepiste Ilmanpaine Tuuli Tuulen nopeus Tuulenpuuska Kosteus Sademäärä (tunneittain)
TemperatureC °F DewpointC °F PressurehPa in Calm     Humidity % HourlyPrecipMM in
00:00 7.7 °F 5.0 °F 1008.4 in Calm     83 % 0.0 in
00:15 7.8 °F 5.1 °F 1008.0 in Calm     83 % 0.0 in
00:30 7.8 °F 5.1 °F 1007.7 in Calm     83 % 0.0 in
00:45 7.7 °F 5.4 °F 1007.3 in Calm     85 % 0.0 in
01:00 7.4 °F 5.5 °F 1007.3 in Calm     88 % 0.0 in
01:15 7.1 °F 5.7 °F 1007.3 in Calm     91 % 0.3 in
01:30 6.8 °F 5.8 °F 1007.0 in Calm     93 % 0.3 in
01:45 6.7 °F 5.8 °F 1006.7 in Calm     94 % 0.3 in
02:00 6.7 °F 5.8 °F 1006.3 in Calm     94 % 0.3 in
02:15 6.6 °F 5.9 °F 1006.0 in Calm     95 % 0.0 in
02:30 6.6 °F 5.8 °F 1006.0 in Calm     95 % 0.0 in
02:45 6.6 °F 5.8 °F 1005.6 in Calm     95 % 0.0 in
03:00 6.6 °F 5.9 °F 1005.3 in Calm     95 % 0.0 in
03:15 6.6 °F 6.0 °F 1005.0 in Calm     96 % 0.0 in
03:30 6.6 °F 6.0 °F 1004.6 in Calm     96 % 0.0 in
03:45 6.7 °F 6.1 °F 1004.3 in Calm     96 % 0.0 in
04:00 6.8 °F 6.2 °F 1003.9 in Calm     96 % 0.0 in
04:15 6.8 °F 6.2 °F 1003.9 in Calm     96 % 0.0 in
04:30 6.8 °F 6.2 °F 1003.6 in Calm     96 % 0.0 in
04:45 6.8 °F 6.2 °F 1003.3 in Calm     96 % 0.0 in
05:00 6.8 °F 6.2 °F 1002.9 in Calm     96 % 0.0 in
05:15 6.8 °F 6.2 °F 1002.9 in Calm     96 % 0.0 in
05:30 6.8 °F 6.2 °F 1002.6 in Calm     96 % 0.0 in
05:45 6.8 °F 6.2 °F 1002.6 in Calm     96 % 0.0 in
06:00 6.8 °F 6.2 °F 1002.3 in Calm     96 % 0.0 in
06:30 6.8 °F 6.2 °F 1001.9 in Calm     96 % 0.0 in
06:45 6.8 °F 6.2 °F 1001.6 in Calm     96 % 0.0 in
07:00 6.8 °F 6.2 °F 1001.6 in Calm     96 % 0.0 in
07:15 6.8 °F 6.2 °F 1001.6 in Calm     96 % 0.0 in
07:30 6.8 °F 6.2 °F 1001.2 in Calm     96 % 0.0 in
07:45 6.7 °F 6.1 °F 1001.2 in Calm     96 % 0.0 in
08:00 6.7 °F 6.1 °F 1001.2 in Calm     96 % 0.0 in
08:15 6.7 °F 6.1 °F 1000.9 in Calm     96 % 0.0 in
08:30 6.7 °F 6.1 °F 1000.9 in Calm     96 % 0.0 in
08:45 6.7 °F 6.1 °F 1000.9 in Calm     96 % 0.0 in
09:00 6.7 °F 6.1 °F 1000.9 in Calm     96 % 0.0 in
09:15 6.8 °F 6.2 °F 1000.6 in Calm     96 % 0.0 in
09:30 6.8 °F 6.2 °F 1000.6 in Calm     96 % 0.0 in
09:45 6.8 °F 6.2 °F 1000.9 in Calm     96 % 0.0 in
10:00 6.9 °F 6.3 °F 1000.9 in Calm     96 % 0.0 in
10:15 6.9 °F 6.4 °F 1000.6 in Calm     96 % 0.0 in
10:30 7.0 °F 6.4 °F 1000.6 in Calm     96 % 0.0 in
10:45 7.1 °F 6.5 °F 1000.6 in Calm     96 % 0.0 in
11:00 7.1 °F 6.5 °F 1000.6 in Calm     96 % 0.0 in
11:15 7.2 °F 6.6 °F 1000.6 in Calm     96 % 0.0 in
11:30 7.2 °F 6.6 °F 1000.2 in Calm     96 % 0.0 in
11:45 7.3 °F 6.5 °F 1000.2 in Calm     95 % 0.0 in
12:00 7.3 °F 6.5 °F 1000.2 in Calm     95 % 0.0 in
12:15 7.4 °F 6.6 °F 1000.2 in Calm     95 % 0.0 in
12:30 7.4 °F 6.7 °F 1000.2 in Calm     95 % 0.0 in
12:45 7.5 °F 6.8 °F 1000.2 in Calm     95 % 0.0 in
13:00 7.6 °F 6.8 °F 999.9 in Calm     95 % 0.0 in
13:15 7.6 °F 6.9 °F 999.9 in Calm     95 % 0.0 in
13:30 7.7 °F 6.9 °F 999.9 in Calm     95 % 0.0 in
13:45 7.8 °F 6.9 °F 999.9 in Calm     94 % 0.0 in
14:00 7.8 °F 6.9 °F 999.5 in Calm     94 % 0.0 in
14:15 7.9 °F 7.0 °F 999.5 in Calm     94 % 0.0 in
14:30 7.8 °F 6.9 °F 999.5 in Calm     94 % 0.0 in
14:45 7.9 °F 7.0 °F 999.5 in Calm     94 % 0.0 in
15:00 7.9 °F 7.0 °F 999.2 in Calm     94 % 0.0 in
15:15 7.9 °F 7.2 °F 999.2 in Calm     95 % 0.0 in
15:30 8.0 °F 7.2 °F 998.9 in Calm     95 % 0.0 in
15:45 8.1 °F 7.1 °F 998.9 in Calm     94 % 0.0 in
16:00 8.1 °F 7.2 °F 998.9 in Calm     94 % 0.0 in
16:15 8.2 °F 7.3 °F 998.9 in Calm     94 % 0.0 in
16:30 8.2 °F 7.3 °F 998.9 in Calm     94 % 0.0 in
16:45 8.2 °F 7.3 °F 998.5 in Calm     94 % 0.0 in
17:00 8.2 °F 7.3 °F 998.5 in Calm     94 % 0.0 in
17:15 8.2 °F 7.3 °F 998.5 in Calm     94 % 0.0 in
17:30 8.2 °F 7.3 °F 998.5 in Calm     94 % 0.0 in
17:45 8.3 °F 7.4 °F 998.2 in Calm     94 % 0.0 in
18:00 8.3 °F 7.4 °F 997.9 in Calm     94 % 0.0 in
18:15 8.3 °F 7.4 °F 997.9 in Calm     94 % 0.0 in
18:30 8.3 °F 7.4 °F 997.9 in Calm     94 % 0.0 in
18:45 8.3 °F 7.4 °F 997.9 in Calm     94 % 0.0 in
19:00 8.3 °F 7.5 °F 997.5 in Calm     95 % 0.0 in
19:15 8.3 °F 7.6 °F 997.5 in Calm     95 % 0.0 in
19:30 8.4 °F 7.6 °F 997.5 in Calm     95 % 0.0 in
19:45 8.4 °F 7.6 °F 997.2 in Calm     95 % 0.0 in
20:00 8.4 °F 7.6 °F 997.2 in Calm     95 % 0.0 in
20:15 8.4 °F 7.7 °F 996.8 in Calm     95 % 0.0 in
20:30 8.4 °F 7.7 °F 996.8 in Calm     95 % 0.0 in
20:45 8.5 °F 7.7 °F 996.5 in Calm     95 % 0.0 in
21:00 8.5 °F 7.7 °F 996.5 in Calm     95 % 0.0 in
21:15 8.5 °F 7.7 °F 996.5 in Calm     95 % 0.0 in
21:30 8.6 °F 7.8 °F 996.2 in Calm     95 % 0.0 in
21:45 8.6 °F 8.0 °F 996.2 in Calm     96 % 0.0 in
22:00 8.6 °F 8.0 °F 996.2 in Calm     96 % 0.0 in
22:15 8.7 °F 8.1 °F 995.8 in Calm     96 % 0.0 in
22:30 8.7 °F 8.1 °F 995.8 in Calm     96 % 0.0 in
22:45 8.8 °F 8.2 °F 995.8 in Calm     96 % 0.0 in
23:00 8.7 °F 8.1 °F 995.5 in Calm     96 % 0.0 in
23:30 8.8 °F 8.2 °F 995.5 in Calm     96 % 0.0 in
23:45 8.8 °F 8.2 °F 995.1 in Calm     96 % 0.0 in
Esan sääasema
Terveisin Weather Underground - 2.75 mb

Alkuperäinen skripti  Jim McMurry - jmcmurry@mwt.net Sovitettu myös templatelle  Wim van der Kuil - Leuven-Template.eu

Laitteet joita käytämme:

Sääasema
Davis VP2

Sääasemaohjelma
Cumulus

Sääaseman tietokone
Asus EeePC

Palveluntarjoaja
Suncomet

Davis VP2

Cumulus

Asus EeePC

Suncomet